Cleveland Burke, OH

6:56 PM EST on February 17, 2018 (GMT -0500)
Burke Lakefront

Weather History for KBKL - May, 2013

Change the Weather History Date:

Friday, May 3, 2013

  Actual Average Record
Temperature  
Mean Temperature 68 °F -  
Max Temperature 78 °F 62 °F 90 °F (2012)
Min Temperature 59 °F 47 °F 39 °F (2005)
Cooling Degree Days 3    
Growing Degree Days 18 (Base 50)    
Moisture  
Dew Point 37 °F    
Average Humidity 32    
Maximum Humidity 48    
Minimum Humidity 20    
Precipitation  
Precipitation 0.00 in - - ()
Sea Level Pressure  
Sea Level Pressure 30.13 in    
Wind  
Wind Speed 14 mph (SE)    
Max Wind Speed 18 mph    
Max Gust Speed 29 mph    
Visibility 10 miles    
Events      
Averages and records for this station are not official NWS values.
T = Trace of Precipitation, MM = Missing Value Source: NWS Daily Summary

Daily Weather History Graph

Daily Weather History Graph

Search for Another Location

Airport or City:

Trip Planner

Search our weather history database for the weather conditions in past years. The results will help you decide how hot, cold, wet, or windy it might be!

Date:

Astronomy

May. 03, 2013 Rise Set
Actual Time 6:20 AM EDT 8:26 PM EDT
Civil Twilight 5:50 AM EDT 8:57 PM EDT
Nautical Twilight 5:13 AM EDT 9:34 PM EDT
Astronomical Twilight 4:32 AM EDT 10:15 PM EDT
Moon 2:49 AM EDT (5/3) 2:15 PM EDT (5/3)
Length of Visible Light 15h 07m
Length of Day
14h 06m
Last Quarter, 37% of the Moon is Illuminated
May 3
Last Quarter
May 9
New
May 18
First Quarter
May 25
Full
May 31
Last Quarter

Hourly Weather History & Observations

Time (EDT) Temp. Dew Point Humidity Pressure Visibility Wind Dir Wind Speed Gust Speed Precip Events Conditions
12:53 AM 66.9 °F 32.0 °F 27% 30.15 in 10.0 mi SSE 12.7 mph 18.4 mph N/A   Clear
1:53 AM 64.9 °F 32.0 °F 29% 30.15 in 10.0 mi SSE 12.7 mph - N/A   Clear
2:53 AM 64.0 °F 34.0 °F 33% 30.14 in 10.0 mi SE 12.7 mph 20.7 mph N/A   Clear
4:53 AM 61.0 °F 36.0 °F 39% 30.14 in 10.0 mi SSE 15.0 mph 23.0 mph N/A   Clear
5:53 AM 59.0 °F 37.0 °F 44% 30.15 in 10.0 mi SSE 17.3 mph 25.3 mph N/A   Clear
6:53 AM 59.0 °F 37.9 °F 46% 30.16 in 10.0 mi SSE 16.1 mph - N/A   Clear
7:53 AM 59.0 °F 39.0 °F 48% 30.16 in 10.0 mi SSE 15.0 mph - N/A   Clear
8:53 AM 62.1 °F 39.9 °F 44% 30.17 in 9.0 mi SSE 15.0 mph 25.3 mph N/A   Clear
9:53 AM 64.9 °F 39.9 °F 40% 30.17 in 10.0 mi SSE 13.8 mph 20.7 mph N/A   Clear
10:53 AM 68.0 °F 37.9 °F 33% 30.16 in 10.0 mi SSE 15.0 mph 20.7 mph N/A   Clear
11:53 AM 72.0 °F 33.1 °F 24% 30.15 in 10.0 mi SE 13.8 mph 23.0 mph N/A   Clear
12:53 PM 73.0 °F 33.1 °F 23% 30.14 in 10.0 mi SE 11.5 mph 21.9 mph N/A   Clear
1:53 PM 75.0 °F 30.9 °F 20% 30.12 in 10.0 mi SE 15.0 mph 23.0 mph N/A   Clear
2:53 PM 75.0 °F 36.0 °F 24% 30.11 in 10.0 mi SE 15.0 mph 20.7 mph N/A   Clear
3:53 PM 75.9 °F 37.9 °F 25% 30.09 in 10.0 mi SE 13.8 mph 26.5 mph N/A   Clear
4:53 PM 75.9 °F 37.9 °F 25% 30.08 in 10.0 mi ESE 13.8 mph 25.3 mph N/A   Clear
5:53 PM 77.0 °F 37.0 °F 24% 30.08 in 10.0 mi SE 16.1 mph 24.2 mph N/A   Clear
6:53 PM 75.9 °F 37.9 °F 25% 30.07 in 10.0 mi SSE 16.1 mph 21.9 mph N/A   Clear
7:53 PM 75.0 °F 39.9 °F 28% 30.08 in 10.0 mi SE 12.7 mph 21.9 mph N/A   Clear
8:53 PM 72.0 °F 41.0 °F 33% 30.09 in 10.0 mi ESE 10.4 mph - N/A   Clear
9:53 PM 70.0 °F 42.1 °F 36% 30.11 in 10.0 mi ESE 10.4 mph - N/A   Clear
10:53 PM 69.1 °F 41.0 °F 36% 30.11 in 10.0 mi SE 18.4 mph 24.2 mph N/A   Clear
11:53 PM 66.9 °F 42.1 °F 40% 30.11 in 10.0 mi SE 17.3 mph 28.8 mph N/A   Clear